{"data":{"norad_id":68952,"epoch":"2026-09-20T04:35:51.919296Z","epoch_age_seconds":45946,"freshness":"FRESH","line1":"1 68952U 26099B   26263.19157314  .00006206  00000+0  19471-3 0  9994","line2":"2 68952  53.1578  77.4924 0001207  89.8913 270.2228 15.34391475 21853","mean_motion":15.34391475,"eccentricity":0.0001207,"inclination_deg":53.1578,"raan_deg":77.4924,"arg_perigee_deg":89.8913,"mean_anomaly_deg":270.2228,"bstar":0.00019471,"rev_number":2185,"period_min":93.848279494645,"perigee_km":461.90288594567,"apogee_km":463.5542708963,"semimajor_km":6840.865578421,"source":"CELESTRAK","updated_at":"2026-09-20T09:00:44.051532Z"}}